Regional Weather Roundup
Issued by NWS

Home | Current Version | Previous Version | Graphics & Text | Print | Product List | Glossary On
Versions: 1 2 3 4 5 6 7 8 9 10 11 12 13 14 15 16 17 18 19 20 21 22 23 24 25 26 27 28 29 30 31 32 33 34 35 36 37 38 39 40 41 42 43 44 45 46 47 48 49 50
000
ASUS43 KMPX 241201
RWRMN
WEATHER ROUNDUP FOR MINNESOTA
NATIONAL WEATHER SERVICE TWIN CITIES/CHANHASSEN MN
600 AM CST MON NOV 24 2014


NOTE: "FAIR" INDICATES FEW OR NO CLOUDS BELOW 12,000 FEET WITH NO
SIGNIFICANT WEATHER AND/OR OBSTRUCTIONS TO VISIBILITY. N/A MEANS
CURRENT SKY AND/OR WEATHER CONDITIONS ARE NOT AVAILABLE.

MNZ060>063-068>070-241300-
   Twin Cities Metro

CITY           SKY/WX    TMP DP  RH WIND       PRES   REMARKS
TWIN CITIES    FRZ RAIN  25  21  86 NW25G35   29.33R FOG     WCI   9
6HR MIN TEMP:  24; 6HR MAX TEMP:  32; 6HR PCP:  0.01;

ST PAUL        LGT SNOW  27  23  86 NW18      29.33R FOG     WCI  13
CRYSTAL        CLOUDY    25  21  85 NW17G26   29.33R WCI  12
BLAINE         CLOUDY    27  25  93 NW17G24   29.32R WCI  14
LAKEVILLE      CLOUDY    25  23  93 NW20G25   29.31R FOG     WCI  11
EDEN PRAIRIE   CLOUDY    25  21  85 NW21G29   29.33R WCI  11
6HR MIN TEMP:  25; 6HR MAX TEMP:  32; 6HR PCP: TRACE;

SOUTH ST PAUL  CLOUDY    27  24  87 NW14G25   29.32R FOG     WCI  16
LAKE ELMO      CLOUDY    28  27  93 NW18G25   29.30R WCI  16
$$
MNZ001>005-007-008-013>017-022>024-027-028-241300-
   Northwest Minnesota

CITY           SKY/WX    TMP DP  RH WIND       PRES   REMARKS
BEMIDJI        LGT SNOW  14  11  87 NW15      29.45R WCI  -1
HALLOCK        CLOUDY     9   3  78 N26G35    29.66R WCI -13
ROSEAU         LGT SNOW  12   9  85 NW16      29.57R WCI  -4
WARROAD        FLURRIES  12   9  85 NW7       29.55R WCI   2
THIEF RVR FALL CLOUDY    10   7  85 NW20G30   29.57R WCI  -8
CROOKSTON      CLOUDY    10   7  85 N24G31    29.62R WCI -10
FOSSTON        LGT SNOW   9   7  92 NW15      29.54R WCI  -8
DETROIT LAKES  LGT SNOW  12  10  92 NW16G32   29.53R WCI  -4
MOORHEAD       LGT SNOW  12  10  92 NW24G30   29.62R WCI  -8
PARK RAPIDS    LGT SNOW  14  10  84 NW17      29.44R FOG     WCI  -3
MAHNOMEN       LGT SNOW  11   7  84 NW17      29.54R WCI  -7
$$
MNZ006-009>011-018-025>026-241300-
   North Central Minnesota

CITY           SKY/WX    TMP DP  RH WIND       PRES   REMARKS
BAUDETTE       LGT SNOW  16  12  84 N18G28    29.48R FOG     WCI   0
FLAG ISLAND    FLURRIES  12   9  85 N21       29.53R WCI  -6
INTL FALLS     MIX PCPN  23  19  85 N20G25    29.39R WCI   8
6HR MIN TEMP:  23; 6HR MAX TEMP:  33; 6HR PCP: TRACE;

WASKISH        FLURRIES  19  18  93 NW12      29.45R WCI   7
BIG FORK       MIX PCPN  27  25  93 NW6       29.36R WCI  20
LONGVILLE      CLOUDY    19  18  93 NW13G20   29.39S WCI   7
GRAND RAPIDS   CLOUDY    23  19  86 NW16G24   29.33S WCI  10
CRANE LAKE     CLOUDY    28  27  93 N12G17    29.33R WCI  18
ORR            MIX PCPN  28  25  86 NW8G16    29.29R WCI  20
COOK           LGT SNOW  30  28  93 NW8       29.29R WCI  23
WALKER         FLURRIES  16  13  89 NW12G18   29.42R WCI   2
$$
MNZ012-019>021-037-241300-
   Northeast Minnesota

CITY           SKY/WX    TMP DP  RH WIND       PRES   REMARKS
DULUTH         LGT SNOW  32  29  88 NW17G28   29.21S FOG     WCI  21
6HR MIN TEMP:  32; 6HR MAX TEMP:  35; 6HR PCP:  0.06;

ELY            LGT SNOW  32  30  93 N9G18     29.23S WCI  24
HIBBING        MIX PCPN  29  24  82 NW18      29.28S WCI  16
EVELETH        LGT SNOW  32  32 100 NW13G20   29.27S WCI  22
DULUTH HARBOR  CLOUDY    36  32  87 NW7       29.24S
TWO HARBORS    DRIZZLE   37  32  81 NW9       29.17F
SILVER BAY     CLOUDY    37  32  81 NW10G16   29.16S
GRAND MARAIS     N/A     33  29  85 N25G37    29.11F WCI  20
G MARAIS ARPRT LGT SNOW  27  23  86 N13G25    29.14S WCI  16
$$
MNZ029>031-032-039>041-046>048-054>057-064-241300-
   West Central Minnesota

CITY           SKY/WX    TMP DP  RH WIND       PRES   REMARKS
FERGUS FALLS   LGT SNOW  12   7  79 N28G37    29.58R WCI  -9
WHEATON        LGT SNOW  12   9  85 NW21G29   29.60R WCI  -6
MORRIS         LGT SNOW  16  10  79 NW25G31   29.51R WCI  -3
ALEXANDRIA     FLURRIES  15   9  76 NW20G30   29.46R WCI  -2
ELBOW LAKE     LGT SNOW  13   9  84 NW25G33   29.53R WCI  -7
WADENA         LGT SNOW  12  10  92 NW15G24   29.45R WCI  -4
GLENWOOD       LGT SNOW  16  10  79 NW22G29   29.46R WCI  -2
APPLETON       CLOUDY    18  10  73 NW26G36   29.55R WCI  -1
BENSON         FLURRIES  16  10  79 N29G40    29.50R WCI  -4
ORTONVILLE     FLURRIES  16   9  73 NW26G33   29.55S WCI  -3
MADISON        FLURRIES  19  12  73 NW28G36   29.56R WCI   1
WILLMAR        FLURRIES  18  12  79 NW26G37   29.47R WCI  -1
$$
MNZ033>034-036-042>043-049>051-058-059-241300-
   Central Minnesota

CITY           SKY/WX    TMP DP  RH WIND       PRES   REMARKS
ST CLOUD       CLOUDY    22  16  78 NW17      29.37R WCI   8
6HR MIN TEMP:  22; 6HR MAX TEMP:  32;

SAUK CENTRE    FLURRIES  17  11  80 NW21G28   29.43R WCI   0
PAYNESVILLE    CLOUDY    16  12  86 W12G26    29.44R WCI   3
AITKIN         CLOUDY    25  19  80 NW9G18    29.34S WCI  15
PINE RIVER     CLOUDY    19  18  93 NW12G18   29.44S WCI   7
BRAINERD       CLOUDY    20  17  88 NW15      29.39R WCI   6
STAPLES        CLOUDY    16  12  86 NW16G24   29.42S WCI   0
LONG PRAIRIE   FLURRIES  16  12  86 W15G29    29.42R WCI   1
LITTLE FALLS   CLOUDY    21  16  79 NW12G20   29.40R WCI   9
LITCHFIELD     CLOUDY    19  18  93 NW18G28   29.41R WCI   4
BUFFALO        CLOUDY    22  18  83 W13G23    29.38R WCI  10
MAPLE LAKE     CLOUDY    23  19  86 NW14G25   29.38R WCI  10
$$
MNZ037-044-045-052-053-241300-
   East Central Minnesota

CITY           SKY/WX    TMP DP  RH WIND       PRES   REMARKS
PRINCETON      CLOUDY    25  19  80 W14G20    29.34R WCI  13
MORA           CLOUDY    27  23  86 NW15G28   29.33R WCI  15
CAMBRIDGE      CLOUDY    28  21  74 NW13      29.30R WCI  18
RUSH CITY      CLOUDY    28  25  89 NW12G22   29.30R WCI  17
MOOSE LAKE     CLOUDY    28  27  93 NW17G23   29.26F WCI  16
HINCKLEY       CLOUDY    28  27  93 NW10G16   29.29S WCI  19
CLOQUET        LGT SNOW  28  28 100 NW15G24   29.24R WCI  17
MCGREGOR       CLOUDY    25  23  93 NW9G20    29.33R WCI  15
$$
MNZ071>073-080-081-089-090-097-098-241300-
   Southwest Minnesota

CITY           SKY/WX    TMP DP  RH WIND       PRES   REMARKS
MONTEVIDEO     FLURRIES  16  12  86 N25G33    29.53R WCI  -3
GRANITE FALLS  FLURRIES  17  13  82 NW22G30   29.53R WCI   0
CANBY          FLURRIES  18  13  83 NW17G25   29.56R WCI   2
MARSHALL       CLOUDY    18   9  68 N30G36    29.51S WCI  -2
REDWOOD FALLS  FLURRIES  19  12  74 NW21G32   29.48R WCI   3
OLIVIA         FLURRIES  21  16  79 NW25G36   29.46R WCI   4
PIPESTONE      FLURRIES  18  12  79 NW22G32   29.51R WCI   0
WINDOM         FLURRIES  18  12  79 NW28G33   29.46R WCI  -1
WORTHINGTON    CLOUDY    19  12  73 NW21G28   29.49R WCI   3
JACKSON        CLOUDY    21  14  73 NW24G33   29.45R WCI   4
TRACY          FLURRIES  18  13  81 NW26G35   29.50R WCI   0
SLAYTON        CLOUDY    17  13  82 NW26G32   29.49R WCI  -1
$$
MNZ065>067-074>077-082>085-091>093-241300-
   South Central Minnesota

CITY           SKY/WX    TMP DP  RH WIND       PRES   REMARKS
MANKATO        CLOUDY    21  14  73 NW23G32   29.38S WCI   5
NEW ULM        CLOUDY    19  16  86 NW26G36   29.42S WCI   1
ST JAMES       CLOUDY    21  16  79 NW24G37   29.44R WCI   4
FAIRMONT       CLOUDY    21  14  73 NW23G33   29.42R WCI   5
GLENCOE        MOCLDY    23  20  89 NW17G29   29.38S WCI   9
FARIBAULT      CLOUDY    25  21  86 W17G26    29.33S FOG     WCI  11
OWATONNA       CLOUDY    25  21  86 W17G26    29.33R FOG     WCI  11
WASECA         CLOUDY    21  18  86 W22G32    29.37R WCI   5
ALBERT LEA     CLOUDY    23  21  93 NW17G28   29.33R WCI   9
$$
MNZ078>079-086>088-094>096-241300-
   Southeast Minnesota

CITY           SKY/WX    TMP DP  RH WIND       PRES   REMARKS
ROCHESTER      LGT SNOW  28  26  92 NW22      29.25S FOG     WCI  14
6HR MIN TEMP:  28; 6HR MAX TEMP:  33; 6HR PCP:  0.07;

RED WING         N/A     32  28  86 W13G20    29.27R WCI  22
STANTON        CLOUDY    28  24  83 NW21G26   29.31R WCI  15
DODGE CENTER   CLOUDY    27  25  93 NW21G30   29.28R WCI  13
WINONA         LGT SNOW  34  32  93 NW15G21   29.22S WCI  24
AUSTIN         CLOUDY    25  21  86 NW26G36   29.30R FOG     WCI   9
PRESTON        LGT SNOW  28  27  94 NW22      29.24R WCI  14
$$
ABBREVIATIONS USED IN REMARKS
   TC - TEMPERATURES IN CELSIUS
  WCI - WIND CHILL INDEX
   HX - HEAT INDEX
  VSB - VISIBILITY
$$


USA.gov is the U.S. government's official web portal to all federal, state and local government web resources and services.